Location: Jalan Sepang
(2.8072°N, 101.8021°E)
Time: 05:59:10
(UTC+00:00)

NOSS 2-1 (C) - Pass Details

Date: 15 May 2026
Orbit: 374 x 1678 km, 63.3° (Epoch: 7 June)

Event Time Altitude Azimuth Distance (km) Brightness Sun altitude
Exits shadow 21:26:42 26° 195° (SSW) 1,929 5.7 -23.1°
Maximum altitude 21:30:42 74° 115° (ESE) 913 4.4 -22.2°
Drops below altitude 10° 21:35:37 10° 29° (NNE) 2,147 7.0 -21.0°
Sets 21:37:35 0° 28° (NNE) 2,906 7.8 -20.6°
